Regional Weather Roundup
Issued by NWS

Home | Current Version | Previous Version | Graphics & Text | Print | Product List | Glossary On
Versions: 1 2 3 4 5 6 7 8 9 10 11 12 13 14 15 16 17 18 19 20 21 22 23 24 25 26 27 28 29 30 31 32 33 34 35 36 37 38 39 40 41 42 43 44 45 46 47 48 49 50
000
ASUS43 KLOT 240306
RWRIL

ILLINOIS REGIONAL WEATHER ROUNDUP
NATIONAL WEATHER SERVICE CHICAGO/ROMEOVILLE IL
1000 PM CDT TUE SEP 23 2014

NOTE: "FAIR" INDICATES FEW OR NO CLOUDS BELOW 12,000 FEET WITH NO
SIGNIFICANT WEATHER AND/OR OBSTRUCTIONS TO VISIBILITY.

* THESE STATIONS ARE NOT UNDER NWS QUALITY CONTROL. THEY ALSO MAY NOT
  REPORT WEATHER SUCH AS PRECIPITATION OR FOG.

ILZ001-002-007-009-015-016-024-240400-
NORTHWEST ILLINOIS

CITY           SKY/WX    TMP DP  RH WIND       PRES   REMARKS
MOLINE         CLOUDY    56  50  80 E5        30.24S
STERLING*      MOCLDY    55  48  76 SE5       30.27R
SAVANNA*       CLOUDY    59  47  64 SE5       30.25R
$$

ILZ003-004-008-010-011-017-018-240400-
NORTH CENTRAL ILLINOIS

CITY           SKY/WX    TMP DP  RH WIND       PRES   REMARKS
ROCKFORD       MOCLDY    59  49  69 CALM      30.30R
DE KALB*       PTCLDY    54  48  79 SE6       30.30S
PERU*          MOCLDY    62  50  65 SE7       30.29R
$$

ILZ005-006-012>014-019>023-240400-
NORTHEAST ILLINOIS

CITY           SKY/WX    TMP DP  RH WIND       PRES   REMARKS
CHICAGO-OHARE  MOCLDY    61  49  64 S6        30.30R
CHICAGO-MIDWAY PTCLDY    63  53  70 E6        30.30R
AURORA         PTCLDY    56  48  74 E3        30.29S
LANSING*       CLEAR     57  50  78 E3        30.31R
JOLIET*        PTCLDY    58  49  72 E6        30.30S
WAUKEGAN       CLEAR     50  49  96 CALM      30.30R
DUPAGE AIRPORT PTCLDY    59  50  72 SE6       30.29R
KANKAKEE*      PTCLDY    55  51  85 E3        30.30S
WHEELING       CLEAR     59  50  72 SE5       30.31R
ROMEOVILLE*    PTCLDY    59  49  71 E9        30.30R
NORTHERLY ISL    N/A     61  56  83 SE3         N/A
$$

LMZ740>746-240400-
SOUTHERN LAKE MICHIGAN

STATION/POSITION SKY/WX   TEMP    WIND        PRES    VSBY  WAVE
                          AIR SEA DIR/SP/G                  HT/PER
                          (F)     (DEG/KT/KT) (MB)    (MI)  (FT/S)
SOUTHERN BUOY              62 62  130/  6/  6 1026.7R         0
WAUKEGAN HARBOR            60     200/  4/  5   N/A
BURNHAM HARBOR             61     130/  3/  4   N/A
CALUMET HARBOR             63     110/  4/  6 1025.0R
MICHIGAN CITY 6N           62 64  100/  8/ 10   N/A           1
ST. JOSEPH                 63 65   80/  6/  8   N/A           1
$$

ILZ025>027-034>036-040-047-049-050-058-095>099-240400-
WEST-CENTRAL ILLINOIS

CITY           SKY/WX    TMP DP  RH WIND       PRES   REMARKS
QUINCY         CLOUDY    61  51  70 SE3       30.24R
GALESBURG*     CLOUDY   N/A N/A N/A E5        30.25R
MACOMB*        MOCLDY    53  49  89 CALM      30.27R
JACKSONVILLE*  MOCLDY    63  51  66 CALM      30.26R
PITTSFIELD*    MOCLDY    58  53  83 CALM      30.26R
$$

ILZ028>032-037-038-041>044-048-051>054-059>061-240400-
CENTRAL ILLINOIS

CITY           SKY/WX    TMP DP  RH WIND       PRES   REMARKS
PONTIAC        PTCLDY    61  50  67 SE5       30.29R
BLOOMINGTON    MOCLDY    58  48  69 SE7       30.29R
DECATUR        MOCLDY    56  49  77 CALM      30.28R
PEORIA         CLOUDY    66  47  50 SE6       30.27R
LACON*         MOCLDY    62  47  56 SE5       30.26R
LINCOLN*       MOCLDY    59  49  69 CALM      30.25R
SPRINGFIELD    CLOUDY    58  52  80 CALM      30.26R
TAYLORVILLE      N/A     59  48  67 E6        30.26R HAZE
$$

ILZ033-039-045-046-055>057-062-063-240400-
EAST-CENTRAL ILLINOIS

CITY           SKY/WX    TMP DP  RH WIND       PRES   REMARKS
CHAMPAIGN      CLEAR     57  50  77 E7        30.28S
DANVILLE*      CLEAR     54  50  85 E5        30.27R
RANTOUL*       PTCLDY    59  48  66 E7        30.29F
MATTOON        CLEAR     56  49  77 SE5       30.27S
PARIS*         CLEAR     50  49  99 CALM      30.30S
$$

ILZ079-100>102-240400-
SOUTHWEST ILLINOIS

CITY           SKY/WX    TMP DP  RH WIND       PRES   REMARKS
ALTON          CLEAR     55  52  88 E5        30.25S
BELLEVILLE     PTCLDY    55  53  92 CALM      30.25R
CAHOKIA*       PTCLDY    58  53  84 CALM      30.25R
SPARTA*        CLEAR     55  49  81 E3        30.26R
$$

ILZ064>066-069>071-074>076-080>082-084>086-088>090-092>094-240400-
SOUTH-CENTRAL ILLINOIS

CITY           SKY/WX    TMP DP  RH WIND       PRES   REMARKS
CARBONDALE     CLEAR     52  49  89 CALM      30.24S
CAIRO*         CLEAR     55  49  82 CALM      30.23S
EFFINGHAM*     CLEAR     53  48  83 E3        30.27R
MARION         CLEAR     52  50  93 CALM      30.25S
MT. VERNON     CLEAR     48  43  81 CALM      30.26S
CENTRALIA*     CLEAR     51  49  91 CALM      30.26S
SALEM*         CLEAR     60  52  75 CALM      30.26S
METROPOLIS*    CLEAR     52  49  91 CALM      30.23R
$$

ILZ067-068-072-073-078-083-087-091-240400-
SOUTHEAST ILLINOIS

CITY           SKY/WX    TMP DP  RH WIND       PRES   REMARKS
LAWRENCEVILLE  CLEAR     53  49  86 NE5       30.28R
FLORA*         CLEAR     59  49  69 E6        30.27S
FAIRFIELD*     CLEAR    N/A N/A N/A CALM      30.26R
HARRISBURG*    CLEAR     59  48  67 E5        30.27R
ROBINSON*      CLEAR     51  49  95 CALM      30.29R
CARMI*         CLEAR     52  51  96 CALM      30.26R
$$

ABBREVIATIONS USED IN REMARKS
   TC - TEMPERATURE IN CELSIUS
  WCI - WIND CHILL INDEX
   HX - HEAT INDEX
  VSB - VISIBILITY
$$



USA.gov is the U.S. government's official web portal to all federal, state and local government web resources and services.